Location: Caltech
(34.1382°N, 118.1253°W)
Time: 00:29:02
(UTC-07:00)

SO-50 - Visible Passes

Search period start: 24 April 2017 00:00
Search period end: 04 May 2017 00:00
Orbit: 621 x 667 km, 64.6° (Epoch: 22 April)

Date Brightness Start Highest point End Pass type
(mag) Time Alt. Az. Time Alt. Az. Time Alt. Az.
27 Apr ? 05:10:28 10° SE 05:13:08 15° ESE 05:15:47 10° ENE visible
28 Apr ? 05:33:49 10° S 05:38:10 41° ESE 05:42:29 10° NE visible
30 Apr ? 04:44:37 10° SSE 04:48:30 27° ESE 04:52:21 10° NE visible
01 May ? 05:09:01 10° SSW 05:13:38 75° ESE 05:18:14 10° NNE visible
02 May ? 03:56:08 11° SSE 03:58:52 18° ESE 04:01:54 10° ENE visible
03 May ? 04:21:18 22° S 04:23:55 47° ESE 04:28:20 10° NE visible
